Location: Unspecified
(0.0000°N, 0.0000°E)
Time: 22:19:21
(UTC+00:00)

Hubble Space Telescope - Pass Details

Date: 30 November 2022
Orbit: 530 x 534 km, 28.5° (Epoch: 01 December)

Event Time Altitude Azimuth Distance (km) Brightness Sun altitude
Exits shadow 04:55:44 - 233° (SW) 2,554 3.9 -12.3°
Reaches altitude 10° 04:57:45 10° 230° (SW) 1,765 3.1 -11.8°
Maximum altitude 05:01:46 59° 150° (SSE) 608 1.3 -10.9°
Drops below altitude 10° 05:05:47 10° 70° (ENE) 1,760 4.1 -9.9°
Sets 05:08:03 0° 66° (ENE) 2,647 5.0 -9.4°
